Beaumont, TX

1:49 AM CST on December 18, 2017 (GMT -0600)
Southeast Texas Regional

Weather History for KBPT - February, 2012

Change the Weather History Date:

Wednesday, February 22, 2012

  Actual Average Record
Temperature  
Mean Temperature 72 °F 57 °F  
Max Temperature 81 °F 67 °F 82 °F (1980)
Min Temperature 63 °F 48 °F 24 °F (1978)
Degree Days  
Heating Degree Days 0 8  
Month to date heating degree days 153 224  
Since 1 July heating degree days 790 1167  
Cooling Degree Days 7 1  
Month to date cooling degree days 20 10  
Year to date cooling degree days 68 21  
Growing Degree Days 22 (Base 50)    
Moisture  
Dew Point 65 °F    
Average Humidity 81    
Maximum Humidity 100    
Minimum Humidity 62    
Precipitation  
Precipitation 0.00 in 0.12 in 2.03 in (1918)
Month to date precipitation 7.88 2.87  
Year to date precipitation 14.15 8.13  
Snow  
Snow 0.00 in 0.00 in T in (1963)
Month to date snowfall 0.0 0.0  
Since 1 July snowfall 0.0 T  
Snow Depth 0.00 in    
Sea Level Pressure  
Sea Level Pressure 29.86 in    
Wind  
Wind Speed 9 mph (SW)    
Max Wind Speed 24 mph    
Max Gust Speed 31 mph    
Visibility 4 miles    
Events Fog    
T = Trace of Precipitation, MM = Missing Value Source: NWS Daily Summary

Daily Weather History Graph

Daily Weather History Graph

Search for Another Location

Airport or City:

Trip Planner

Search our weather history database for the weather conditions in past years. The results will help you decide how hot, cold, wet, or windy it might be!

Date:

Astronomy

Feb. 22, 2012 Rise Set
Actual Time 6:49 AM CST 6:09 PM CST
Civil Twilight 6:25 AM CST 6:34 PM CST
Nautical Twilight 5:57 AM CST 7:02 PM CST
Astronomical Twilight 5:29 AM CST 7:29 PM CST
Moon 6:55 AM CST (2/22) 7:07 PM CST (2/22)
Length of Visible Light 12h 08m
Length of Day
11h 20m
New Moon, 1% of the Moon is Illuminated
Feb 22
New Moon
Feb 29
First Quarter
Mar 8
Full
Mar 14
Last Quarter
Mar 22
New

Hourly Weather History & Observations

Time (CST) Temp. Heat Index Dew Point Humidity Pressure Visibility Wind Dir Wind Speed Gust Speed Precip Events Conditions
12:29 AM 62.6 °F - 62.6 °F 100% 30.01 in 1.0 mi South 6.9 mph - N/A   Mist
12:37 AM 62.6 °F - 62.6 °F 100% 30.00 in 0.8 mi South 6.9 mph - N/A   Mist
12:53 AM 64.0 °F - 62.1 °F 93% 30.01 in 0.8 mi South 6.9 mph - N/A   Mist
1:37 AM 64.4 °F - 62.6 °F 94% 29.99 in 1.2 mi South 4.6 mph - N/A   Overcast
1:45 AM 64.4 °F - 62.6 °F 94% 29.99 in 1.5 mi SSW 5.8 mph - N/A   Overcast
1:53 AM 64.0 °F - 62.1 °F 93% 29.99 in 1.2 mi South 5.8 mph - N/A   Overcast
2:20 AM 64.4 °F - 62.6 °F 94% 29.97 in 0.8 mi Calm Calm - N/A   Mist
2:41 AM 64.4 °F - 62.6 °F 94% 29.96 in 1.0 mi SW 3.5 mph - N/A   Mist
2:53 AM 64.0 °F - 62.1 °F 93% 29.96 in 0.8 mi Calm Calm - N/A   Mist
3:25 AM 64.4 °F - 62.6 °F 94% 29.95 in 1.0 mi SW 3.5 mph - N/A   Mist
3:38 AM 64.4 °F - 62.6 °F 94% 29.96 in 2.0 mi West 3.5 mph - N/A   Overcast
3:53 AM 64.0 °F - 63.0 °F 96% 29.95 in 1.5 mi Calm Calm - N/A   Overcast
4:05 AM 64.4 °F - 62.6 °F 94% 29.95 in 1.2 mi Calm Calm - N/A   Overcast
4:24 AM 64.4 °F - 62.6 °F 94% 29.95 in 0.8 mi Calm Calm - N/A   Mist
4:53 AM 64.0 °F - 62.1 °F 93% 29.95 in 0.2 mi Calm Calm - N/A Fog Fog
5:37 AM 64.4 °F - 62.6 °F 94% 29.94 in 0.5 mi Calm Calm - N/A Fog Fog
5:53 AM 64.4 °F - 62.6 °F 94% 29.94 in 0.5 mi Calm Calm - N/A Fog Fog
6:01 AM 64.4 °F - 62.6 °F 94% 29.94 in 0.2 mi Calm Calm - N/A Fog Fog
6:53 AM 64.9 °F - 63.0 °F 93% 29.93 in 0.2 mi SSW 3.5 mph - N/A Fog Fog
7:53 AM 66.0 °F - 64.0 °F 93% 29.93 in 0.5 mi SW 3.5 mph - N/A Fog Fog
8:33 AM 66.2 °F - 64.4 °F 94% 29.94 in 1.0 mi SSW 8.1 mph - N/A   Overcast
8:51 AM 66.2 °F - 64.4 °F 94% 29.93 in 0.8 mi SSW 5.8 mph - N/A   Mist
8:53 AM 66.9 °F - 64.9 °F 93% 29.94 in 0.8 mi SSW 5.8 mph - N/A   Mist
9:47 AM 68.0 °F - 66.2 °F 94% 29.93 in 5.0 mi SSW 6.9 mph - N/A   Overcast
9:53 AM 68.0 °F - 66.0 °F 93% 29.93 in 3.0 mi SSW 6.9 mph - N/A   Overcast
10:53 AM 73.0 °F - 66.9 °F 81% 29.91 in 6.0 mi SW 12.7 mph 19.6 mph N/A   Haze
11:53 AM 75.0 °F - 66.9 °F 76% 29.88 in 10.0 mi SW 18.4 mph 23.0 mph N/A   Overcast
12:53 PM 79.0 °F - 66.9 °F 66% 29.84 in 10.0 mi WSW 15.0 mph 21.9 mph N/A   Mostly Cloudy
1:53 PM 80.1 °F 82.1 °F 66.0 °F 62% 29.80 in 10.0 mi SW 16.1 mph 23.0 mph N/A   Mostly Cloudy
2:53 PM 81.0 °F 83.3 °F 66.9 °F 62% 29.76 in 10.0 mi SW 17.3 mph - N/A   Mostly Cloudy
3:00 PM 80.6 °F 82.7 °F 66.2 °F 61% 29.76 in 10.0 mi SSW 15.0 mph 24.2 mph N/A   Partly Cloudy
3:53 PM 79.0 °F - 68.0 °F 69% 29.75 in 10.0 mi SSW 12.7 mph - N/A   Partly Cloudy
4:53 PM 75.0 °F - 68.0 °F 79% 29.73 in 10.0 mi SSW 12.7 mph 21.9 mph N/A   Clear
5:53 PM 72.0 °F - 66.9 °F 84% 29.74 in 9.0 mi SSW 9.2 mph 21.9 mph N/A   Clear
6:53 PM 69.1 °F - 66.0 °F 90% 29.74 in 8.0 mi SSW 13.8 mph - N/A   Clear
7:19 PM 69.8 °F - 66.2 °F 88% 29.74 in 9.0 mi SW 11.5 mph 19.6 mph N/A   Partly Cloudy
7:40 PM 69.8 °F - 66.2 °F 88% 29.75 in 8.0 mi SW 10.4 mph 19.6 mph N/A   Mostly Cloudy
7:53 PM 69.1 °F - 66.0 °F 90% 29.75 in 8.0 mi SSW 13.8 mph 19.6 mph N/A   Mostly Cloudy
8:04 PM 69.8 °F - 66.2 °F 88% 29.74 in 8.0 mi SSW 15.0 mph 24.2 mph N/A   Scattered Clouds
8:15 PM 69.8 °F - 66.2 °F 88% 29.74 in 8.0 mi SSW 18.4 mph 31.1 mph N/A   Mostly Cloudy
8:53 PM 68.0 °F - 66.0 °F 93% 29.74 in 3.0 mi SW 10.4 mph 21.9 mph N/A   Overcast
9:53 PM 70.0 °F - 66.9 °F 90% 29.76 in 8.0 mi WSW 11.5 mph 19.6 mph N/A   Overcast
10:33 PM 68.0 °F - 66.2 °F 94% 29.75 in 2.5 mi SW 16.1 mph 23.0 mph N/A   Overcast
10:46 PM 68.0 °F - 66.2 °F 94% 29.75 in 1.5 mi SW 11.5 mph 20.7 mph N/A   Overcast
10:53 PM 68.0 °F - 66.0 °F 93% 29.74 in 1.8 mi SW 11.5 mph - N/A   Overcast
11:03 PM 68.0 °F - 66.2 °F 94% 29.74 in 2.0 mi SW 15.0 mph - N/A   Overcast
11:46 PM 69.8 °F - 66.2 °F 88% 29.73 in 4.0 mi SW 16.1 mph 23.0 mph N/A   Overcast
11:53 PM 69.1 °F - 66.9 °F 93% 29.73 in 4.0 mi SW 12.7 mph 23.0 mph N/A   Overcast